F4DVI Weather Reports


Display with metric or nautical units.
time (UTC)temp
F
wind
direction
speed
MPH
gust
MPH
rain 1hr
in
rain 24hr
in
rain mn
in
humidity
%
barometer
mb
20260506094331 55 345 2.0 2.0 0.00 0.01 0.00 85
20260506093831 54 354 0.0 0.0 0.00 0.01 0.00 84
20260506093331 55 354 0.0 0.0 0.00 0.01 0.00 85
20260506092831 55 354 0.0 4.0 0.00 0.01 0.00 85
20260506092331 55 315 0.0 2.0 0.00 0.01 0.00 86
20260506091831 55 302 0.0 2.0 0.00 0.01 0.00 85
20260506091331 54 316 1.0 1.0 0.00 0.01 0.00 85
20260506090831 54 316 0.0 3.0 0.00 0.01 0.00 85
20260506090331 54 1 0.0 2.0 0.00 0.01 0.00 85
20260506085831 54 305 0.0 6.0 0.00 0.01 0.00 85
20260506085331 53 21 0.0 6.0 0.00 0.01 0.00 84
20260506084831 54 350 0.0 3.0 0.00 0.01 0.00 84
20260506084331 53 15 0.0 6.0 0.00 0.01 0.00 84
20260506083831 54 25 0.0 0.0 0.00 0.01 0.00 85
20260506083331 54 25 0.0 3.0 0.00 0.01 0.00 85
20260506082831 54 312 0.0 2.0 0.00 0.01 0.00 85
20260506082331 54 15 0.0 6.0 0.00 0.01 0.00 85
20260506081831 53 4 0.0 5.0 0.00 0.01 0.00 85
20260506081331 54 33 0.0 5.0 0.00 0.01 0.00 85
20260506080831 54 329 0.0 4.0 0.00 0.01 0.00 85
20260506080331 53 354 0.0 4.0 0.00 0.01 0.00 85
20260506073331 54 16 0.0 0.0 0.00 0.01 0.00 84
20260506072831 55 16 0.0 7.0 0.00 0.01 0.00 84
20260506072331 54 343 0.0 3.0 0.00 0.01 0.00 85
20260506071831 54 295 0.0 3.0 0.00 0.01 0.00 85
20260506071331 54 357 0.0 5.0 0.00 0.01 0.00 86
20260506070831 54 343 0.0 4.0 0.00 0.01 0.00 86
20260506070331 55 111 1.0 4.0 0.00 0.01 0.00 86
20260506062331 54 19 0.0 2.0 0.00 0.01 0.00 88
20260506061831 54 340 0.0 3.0 0.00 0.01 0.00 88
20260506061331 54 288 0.0 0.0 0.00 0.01 0.00 88
20260506060831 54 288 0.0 0.0 0.00 0.01 0.00 88
20260506060331 54 288 0.0 0.0 0.00 0.01 0.00 88
20260506051331 54 291 0.0 0.0 0.00 0.01 0.00 89
20260506050831 53 288 0.0 1.0 0.00 0.01 0.00 89
20260506050331 53 330 0.0 1.0 0.00 0.01 0.00 89
20260506044831 53 271 0.0 0.0 0.00 0.01 0.00 89
20260506044331 53 271 0.0 0.0 0.00 0.01 0.00 88
20260506043831 53 271 0.0 3.0 0.00 0.02 0.00 89
20260506043331 54 312 0.0 0.0 0.00 0.02 0.00 89
20260506042831 53 312 0.0 0.0 0.00 0.02 0.00 88
20260506042331 53 312 0.0 0.0 0.00 0.02 0.00 88
20260506041831 53 312 0.0 0.0 0.00 0.02 0.00 88
20260506041331 53 312 0.0 0.0 0.00 0.02 0.00 88
20260506040831 53 312 0.0 0.0 0.00 0.02 0.00 88
20260506040331 52 312 0.0 0.0 0.00 0.02 0.00 88
20260506035831 53 312 0.0 0.0 0.00 0.02 0.00 88
20260506035331 53 312 0.0 0.0 0.00 0.02 0.00 88
20260506034831 53 312 0.0 0.0 0.00 0.02 0.00 88
20260506034332 53 312 0.0 0.0 0.00 0.02 0.00 88
20260506033831 53 312 0.0 0.0 0.00 0.02 0.00 88
20260506033332 53 312 0.0 0.0 0.00 0.02 0.00 88
20260506032832 53 312 0.0 0.0 0.00 0.02 0.00 88
20260506032332 53 312 0.0 0.0 0.00 0.02 0.00 88
20260506031832 53 312 0.0 0.0 0.00 0.02 0.00 88
20260506031332 53 312 0.0 0.0 0.00 0.02 0.00 88
20260506030832 53 312 0.0 3.0 0.00 0.02 0.00 88
20260506030332 54 47 0.0 0.0 0.00 0.02 0.00 88
20260506025832 53 47 0.0 3.0 0.00 0.02 0.00 88
20260506025332 53 303 0.0 0.0 0.00 0.02 0.00 88
20260506024832 54 303 0.0 0.0 0.00 0.02 0.00 88
20260506024332 54 303 0.0 0.0 0.00 0.02 0.00 88
20260506023832 53 303 0.0 0.0 0.00 0.02 0.00 88
20260506023332 53 303 0.0 0.0 0.00 0.02 0.00 88
20260506022832 53 303 0.0 0.0 0.00 0.02 0.00 88
20260506022332 54 303 0.0 0.0 0.00 0.02 0.00 88
20260506021832 54 303 0.0 0.0 0.00 0.02 0.00 88
20260506021332 54 303 0.0 0.0 0.00 0.02 0.00 88
20260506020832 54 303 0.0 0.0 0.00 0.02 0.00 88
20260506020332 53 303 0.0 0.0 0.00 0.02 0.00 88
20260506015832 53 303 0.0 0.0 0.00 0.02 0.00 88
20260506015332 54 303 0.0 0.0 0.00 0.02 0.00 88
20260506014832 53 303 0.0 0.0 0.00 0.02 0.00 88
20260506014332 54 303 0.0 0.0 0.00 0.02 0.00 87
20260506013832 53 303 0.0 0.0 0.00 0.02 0.00 87
20260506013332 54 303 0.0 0.0 0.00 0.02 0.00 87
20260506012832 53 303 0.0 0.0 0.00 0.02 0.00 87
20260506012332 53 303 0.0 0.0 0.00 0.02 0.00 87
20260506011832 54 303 0.0 0.0 0.00 0.02 0.00 87
20260506011332 53 303 0.0 0.0 0.00 0.02 0.00 87
20260506010832 53 303 0.0 0.0 0.00 0.02 0.00 87
20260506010332 53 303 0.0 0.0 0.00 0.02 0.00 87
20260506005832 54 303 0.0 0.0 0.00 0.02 0.00 87
20260506005332 54 303 0.0 0.0 0.00 0.02 0.00 86
20260506004832 53 303 0.0 0.0 0.00 0.02 0.00 86
20260506004332 53 303 0.0 0.0 0.00 0.02 0.00 86
20260506003832 53 303 0.0 0.0 0.00 0.02 0.00 86
20260506003332 53 303 0.0 0.0 0.00 0.02 0.00 86
20260506002832 53 303 0.0 0.0 0.00 0.02 0.00 86
20260506002332 54 303 0.0 0.0 0.00 0.02 0.00 86
20260506001832 54 303 0.0 0.0 0.00 0.02 0.00 86
20260506001332 53 303 0.0 0.0 0.00 0.02 0.00 86
20260506000832 54 303 0.0 0.0 0.00 0.02 0.00 86
20260506000332 54 303 0.0 0.0 0.00 0.02 0.00 86
20260505235832 54 303 0.0 0.0 0.00 0.02 0.00 86
20260505235332 54 303 0.0 0.0 0.00 0.02 0.00 86
20260505234832 54 303 0.0 0.0 0.00 0.02 0.00 86
20260505234332 53 303 0.0 0.0 0.00 0.02 0.00 86
20260505233832 54 303 0.0 0.0 0.00 0.02 0.00 86
20260505233332 54 303 0.0 0.0 0.00 0.02 0.00 86
20260505232832 54 303 0.0 0.0 0.00 0.02 0.00 85
20260505232332 54 303 0.0 0.0 0.00 0.02 0.00 86
20260505231832 54 303 0.0 0.0 0.00 0.02 0.00 86
20260505231332 54 303 0.0 0.0 0.00 0.02 0.00 85
20260505230832 54 303 0.0 0.0 0.00 0.02 0.00 86
20260505230332 54 303 0.0 0.0 0.00 0.02 0.00 85
20260505225832 54 303 0.0 0.0 0.00 0.02 0.00 85
20260505225332 54 303 0.0 0.0 0.00 0.02 0.00 85
20260505224832 54 303 0.0 0.0 0.00 0.02 0.02 85
20260505224332 54 303 0.0 0.0 0.00 0.02 0.02 85
20260505223832 54 303 0.0 0.0 0.00 0.02 0.02 85
20260505223332 54 303 0.0 0.0 0.00 0.02 0.02 85
20260505222832 54 303 0.0 0.0 0.00 0.02 0.02 85
20260505222332 54 303 0.0 0.0 0.00 0.02 0.02 85
20260505221832 54 303 0.0 0.0 0.00 0.02 0.02 85
20260505221332 54 303 0.0 0.0 0.00 0.02 0.02 85
20260505220832 53 303 0.0 0.0 0.00 0.02 0.02 85
20260505220332 54 303 0.0 0.0 0.00 0.02 0.02 85
20260505215832 54 303 0.0 0.0 0.00 0.02 0.02 85
20260505215332 54 303 0.0 0.0 0.00 0.02 0.02 85
20260505214832 54 303 0.0 0.0 0.00 0.02 0.02 85
20260505214332 54 303 0.0 0.0 0.00 0.02 0.02 85
20260505213832 54 303 0.0 0.0 0.00 0.02 0.02 85
20260505213332 53 303 0.0 0.0 0.00 0.02 0.02 85
20260505212832 54 303 0.0 0.0 0.00 0.02 0.02 85
20260505212332 54 303 0.0 0.0 0.00 0.02 0.02 85
20260505211832 54 303 0.0 0.0 0.00 0.02 0.02 85
20260505211332 54 303 0.0 0.0 0.00 0.02 0.02 85
20260505210832 54 303 0.0 0.0 0.00 0.02 0.02 85
20260505210332 54 303 0.0 0.0 0.00 0.02 0.02 85
20260505205832 54 303 0.0 0.0 0.00 0.02 0.02 85
20260505205332 53 303 0.0 0.0 0.00 0.02 0.02 85
20260505204832 53 303 0.0 0.0 0.00 0.02 0.02 85
20260505204332 53 303 0.0 0.0 0.00 0.02 0.02 85
20260505203832 52 303 0.0 0.0 0.00 0.02 0.02 85
20260505203332 53 303 0.0 0.0 0.00 0.02 0.02 85
20260505202832 53 303 0.0 0.0 0.00 0.02 0.02 85
20260505202332 53 303 0.0 0.0 0.00 0.02 0.02 84
20260505201832 53 303 0.0 0.0 0.00 0.02 0.02 84
20260505201332 54 303 0.0 0.0 0.00 0.02 0.02 84
20260505200832 54 303 0.0 0.0 0.00 0.02 0.02 84
20260505200332 54 303 0.0 0.0 0.00 0.02 0.02 84
20260505195833 55 303 0.0 0.0 0.00 0.02 0.02 84
20260505195332 55 303 0.0 0.0 0.00 0.02 0.02 83
20260505194832 55 303 0.0 0.0 0.00 0.02 0.02 83
20260505194332 56 303 0.0 0.0 0.00 0.02 0.02 83
20260505193832 54 303 0.0 0.0 0.00 0.02 0.02 83
20260505193332 55 303 0.0 0.0 0.00 0.02 0.02 83
20260505192832 56 303 0.0 0.0 0.00 0.02 0.02 83
20260505192332 55 303 0.0 0.0 0.00 0.02 0.02 83
20260505191832 55 303 0.0 0.0 0.00 0.02 0.02 83
20260505191332 55 303 0.0 0.0 0.00 0.02 0.02 83
20260505190832 55 303 0.0 0.0 0.00 0.02 0.02 83
20260505190332 55 303 0.0 0.0 0.00 0.02 0.02 83
20260505185832 55 303 0.0 0.0 0.00 0.02 0.02 83
20260505185332 55 303 0.0 0.0 0.00 0.02 0.02 83
20260505184832 56 303 0.0 0.0 0.00 0.02 0.02 83
20260505184332 55 303 0.0 0.0 0.00 0.02 0.02 82
20260505183832 55 303 0.0 0.0 0.00 0.03 0.02 82
20260505183332 55 303 0.0 0.0 0.00 0.03 0.02 82
20260505182832 55 303 0.0 0.0 0.00 0.03 0.02 82
20260505182332 57 303 0.0 0.0 0.00 0.03 0.02 81
20260505181832 56 303 0.0 0.0 0.00 0.03 0.02 81
20260505181332 57 303 0.0 0.0 0.01 0.03 0.02 81
20260505180832 57 303 0.0 1.0 0.01 0.03 0.02 80
20260505180332 57 323 0.0 2.0 0.01 0.03 0.02 80
20260505175832 59 274 0.0 0.0 0.01 0.03 0.02 80
20260505175332 58 274 0.0 0.0 0.01 0.03 0.02 80
20260505174832 58 274 0.0 4.0 0.01 0.03 0.02 79
20260505174332 58 305 4.0 4.0 0.01 0.03 0.02 79
20260505173832 59 334 0.0 2.0 0.01 0.03 0.02 79
20260505173332 58 334 0.0 2.0 0.01 0.03 0.02 78
20260505172832 59 306 0.0 4.0 0.01 0.03 0.02 78
20260505172332 59 317 0.0 3.0 0.01 0.03 0.02 77
20260505171832 60 322 1.0 3.0 0.01 0.03 0.02 77
20260505171332 60 286 0.0 4.0 0.00 0.02 0.01 78
20260505170833 60 241 0.0 7.0 0.00 0.02 0.01 77
20260505170332 62 341 7.0 7.0 0.00 0.02 0.01 77
20260505165832 62 14 3.0 7.0 0.00 0.02 0.01 76
20260505165332 62 264 0.0 5.0 0.00 0.02 0.01 76
20260505164833 63 288 0.0 5.0 0.00 0.02 0.01 76
20260505164333 64 298 0.0 3.0 0.00 0.02 0.01 77
20260505163833 62 282 0.0 6.0 0.00 0.02 0.01 76
20260505163333 63 286 1.0 5.0 0.00 0.02 0.01 76
20260505162833 62 255 0.0 4.0 0.00 0.02 0.01 77
20260505162333 63 236 0.0 0.0 0.00 0.02 0.01 77
20260505161833 62 236 0.0 6.0 0.00 0.02 0.01 77
20260505161333 63 295 0.0 5.0 0.00 0.02 0.01 77
20260505160833 61 274 2.0 5.0 0.00 0.02 0.01 77
20260505160333 62 275 0.0 3.0 0.00 0.02 0.01 78
20260505153333 63 292 0.0 4.0 0.00 0.02 0.01 77
20260505152833 62 323 0.0 4.0 0.00 0.02 0.01 78
20260505152333 63 298 0.0 5.0 0.00 0.02 0.01 79
20260505151833 62 258 0.0 0.0 0.00 0.02 0.01 79
20260505151333 61 258 0.0 3.0 0.00 0.02 0.01 78
20260505150833 61 305 2.0 6.0 0.00 0.02 0.01 78
20260505150333 62 284 2.0 7.0 0.00 0.02 0.01 78
20260505140333 60 229 3.0 8.0 0.00 0.02 0.01 81
20260505124833 62 254 4.0 10.0 0.00 0.03 0.01 79
20260505124333 61 2 4.0 10.0 0.00 0.03 0.01 79
20260505123833 61 246 7.0 10.0 0.00 0.03 0.01 78
20260505123333 62 258 9.0 10.0 0.00 0.03 0.01 78
20260505122833 62 300 5.0 12.0 0.00 0.03 0.01 78
20260505122333 62 233 6.0 8.0 0.00 0.03 0.01 79
20260505121833 63 233 6.0 9.0 0.00 0.03 0.01 78
20260505121333 63 236 0.0 8.0 0.00 0.03 0.01 78
20260505120833 63 244 2.0 8.0 0.00 0.03 0.01 78
20260505120333 62 247 6.0 7.0 0.00 0.03 0.01 79
20260505115833 62 233 5.0 8.0 0.00 0.03 0.01 79
20260505115333 62 265 4.0 8.0 0.00 0.03 0.01 79
20260505114833 62 244 5.0 6.0 0.00 0.03 0.01 79
20260505114333 62 272 4.0 6.0 0.00 0.03 0.01 79
20260505113833 62 270 3.0 9.0 0.00 0.04 0.01 79
20260505113333 63 264 4.0 11.0 0.00 0.04 0.01 79
20260505112833 63 258 5.0 9.0 0.00 0.04 0.01 79
20260505112333 65 258 3.0 9.0 0.00 0.04 0.01 78
20260505111833 66 282 2.0 7.0 0.00 0.04 0.01 79
20260505111333 66 272 0.0 4.0 0.00 0.04 0.01 80
20260505110834 67 251 0.0 5.0 0.00 0.04 0.01 81
20260505110333 67 296 0.0 4.0 0.00 0.04 0.01 82
20260505101833 62 278 0.0 4.0 0.00 0.26 0.01 90
20260505101333 61 330 0.0 4.0 0.00 0.26 0.01 90
20260505100833 61 272 0.0 3.0 0.00 0.26 0.01 90
20260505100333 59 243 0.0 0.0 0.00 0.26 0.01 90
20260505095833 59 243 0.0 0.0 0.00 0.26 0.01 90
20260505095333 59 284 0.0 1.0 0.00 0.26 0.01 89
20260505094833 58 282 0.0 1.0 0.00 0.26 0.01 89